User: anonymous   Login
Location: Unspecified
(0.0000°N, 0.0000°E)
Time: 11:19:37
(UTC+01:00)
Language:

H-2A R/B - Orbit

View from above orbital plane
View from above orbital plane
View from above satellite
View from above satellite

Ground track
Ground track

The orbit data is extracted from the following two-line orbital elements,

1 28932U 06002B   15027.57007324  .00002154  00000-0  21733-3 0  9200
2 28932 098.2739 263.2174 0092791 282.9056 134.2871 14.89148489487965
Epoch (UTC): 27 January 2015 13:40:54
Eccentricity: 0.0092791
inclination: 98.2739°
perigee height: 536 km
apogee height: 665 km
right ascension of ascending node: 263.2174°
argument of perigee: 282.9056°
revolutions per day: 14.89148489
mean anomaly at epoch: 134.2871°
orbit number at epoch: 48796

The dashed part of the orbit path shows where the satellite is in the earth's shadow,  

DLR